Hourly Weather Nechaevskie Vyselki

Today, 3 July, Friday

Time Temperature Precipitation Wind Pressure Humidity
00:00 +19°C° 0 mm 3 mps 739 mmHg 93%
01:00 +19°C° 0 mm 3 mps 739 mmHg 95%
02:00 +18°C° 0 mm 3 mps 740 mmHg 96%
03:00 +19°C° 0 mm 3 mps 740 mmHg 96%
04:00 +19°C° 0 mm 3 mps 740 mmHg 95%
05:00 +19°C° 0 mm 3 mps 740 mmHg 95%
06:00 +20°C° 0 mm 3 mps 740 mmHg 91%
07:00 +22°C° 0 mm 3 mps 740 mmHg 87%
08:00 +24°C° 0 mm 3 mps 741 mmHg 83%
09:00 +25°C° 0.3 mm 3 mps 741 mmHg 79%
10:00 +26°C° 0.3 mm 3 mps 741 mmHg 75%
11:00 +27°C° 0.3 mm 3 mps 741 mmHg 72%
12:00 +27°C° 0.2 mm 3 mps 741 mmHg 72%
13:00 +26°C° 0.2 mm 2 mps 741 mmHg 72%
14:00 +26°C° 0.2 mm 2 mps 741 mmHg 73%
15:00 +25°C° 0.5 mm 2 mps 741 mmHg 76%
16:00 +25°C° 0.5 mm 1 mps 741 mmHg 80%
17:00 +24°C° 0.5 mm 1 mps 741 mmHg 83%
18:00 +23°C° 0 mm 1 mps 741 mmHg 85%
19:00 +22°C° 0 mm 1 mps 741 mmHg 87%
20:00 +21°C° 0 mm 1 mps 741 mmHg 89%
21:00 +20°C° 0.2 mm 2 mps 741 mmHg 90%
22:00 +20°C° 0.2 mm 2 mps 741 mmHg 92%
23:00 +19°C° 0.2 mm 2 mps 741 mmHg 93%

Tomorrow, 4 July, Saturday

Time Temperature Precipitation Wind Pressure Humidity
00:00 +19°C° 0.5 mm 2 mps 741 mmHg 94%
01:00 +19°C° 0.5 mm 2 mps 741 mmHg 95%
02:00 +18°C° 0.5 mm 2 mps 741 mmHg 96%
03:00 +19°C° 0.1 mm 2 mps 741 mmHg 95%
04:00 +19°C° 0.1 mm 2 mps 741 mmHg 95%
05:00 +20°C° 0.1 mm 2 mps 740 mmHg 94%
06:00 +21°C° 0.3 mm 3 mps 741 mmHg 92%
07:00 +22°C° 0.3 mm 3 mps 741 mmHg 89%
08:00 +23°C° 0.3 mm 4 mps 741 mmHg 86%
09:00 +24°C° 1 mm 3 mps 741 mmHg 85%
10:00 +25°C° 1 mm 3 mps 741 mmHg 83%
11:00 +25°C° 1 mm 3 mps 740 mmHg 82%
12:00 +25°C° 1.1 mm 3 mps 740 mmHg 84%
13:00 +25°C° 1.1 mm 3 mps 740 mmHg 86%
14:00 +24°C° 1.1 mm 3 mps 740 mmHg 88%
15:00 +24°C° 0.4 mm 3 mps 740 mmHg 88%
16:00 +24°C° 0.4 mm 3 mps 740 mmHg 88%
17:00 +25°C° 0.4 mm 3 mps 740 mmHg 88%
18:00 +24°C° 0.3 mm 2 mps 740 mmHg 90%
19:00 +23°C° 0.3 mm 2 mps 740 mmHg 92%
20:00 +21°C° 0.3 mm 2 mps 740 mmHg 94%
21:00 +20°C° 0.1 mm 2 mps 740 mmHg 94%
22:00 +19°C° 0.1 mm 2 mps 740 mmHg 94%
23:00 +19°C° 0.1 mm 2 mps 740 mmHg 93%

Day after tomorrow, 5 July, Sunday

Time Temperature Precipitation Wind Pressure Humidity
00:00 +19°C° 0.1 mm 2 mps 740 mmHg 94%
01:00 +19°C° 0.1 mm 2 mps 739 mmHg 94%
02:00 +18°C° 0.1 mm 2 mps 739 mmHg 94%
03:00 +18°C° 2.6 mm 2 mps 739 mmHg 96%
04:00 +20°C° 2.6 mm 1 mps 740 mmHg 97%
05:00 +20°C° 2.6 mm 1 mps 740 mmHg 98%
06:00 +20°C° 0.7 mm 1 mps 740 mmHg 96%
07:00 +21°C° 0.7 mm 1 mps 740 mmHg 95%
08:00 +20°C° 0.7 mm 0 mps 740 mmHg 93%
09:00 +22°C° 0.2 mm 1 mps 740 mmHg 93%
10:00 +22°C° 0.2 mm 1 mps 740 mmHg 93%
11:00 +22°C° 0.2 mm 1 mps 740 mmHg 92%
12:00 +22°C° 0.1 mm 1 mps 740 mmHg 92%
13:00 +22°C° 0.1 mm 1 mps 740 mmHg 91%
14:00 +22°C° 0.1 mm 1 mps 740 mmHg 90%
15:00 +22°C° 0.1 mm 1 mps 739 mmHg 86%
16:00 +23°C° 0.1 mm 1 mps 739 mmHg 82%
17:00 +24°C° 0.1 mm 1 mps 739 mmHg 77%
18:00 +22°C° 0 mm 1 mps 739 mmHg 81%
19:00 +21°C° 0 mm 1 mps 739 mmHg 85%
20:00 +20°C° 0 mm 1 mps 739 mmHg 90%
21:00 +19°C° 0 mm 1 mps 739 mmHg 91%
22:00 +19°C° 0 mm 1 mps 739 mmHg 92%
23:00 +19°C° 0 mm 1 mps 740 mmHg 93%

6 July, Monday

Time Temperature Precipitation Wind Pressure Humidity
00:00 +18°C° 0 mm 1 mps 739 mmHg 93%
01:00 +18°C° 0 mm 1 mps 739 mmHg 94%
02:00 +18°C° 0 mm 1 mps 739 mmHg 94%
03:00 +19°C° 0 mm 1 mps 740 mmHg 94%
04:00 +18°C° 0 mm 2 mps 740 mmHg 94%
05:00 +18°C° 0 mm 2 mps 740 mmHg 94%
06:00 +20°C° 0 mm 2 mps 740 mmHg 88%
07:00 +21°C° 0 mm 2 mps 740 mmHg 81%
08:00 +23°C° 0 mm 2 mps 740 mmHg 74%
09:00 +24°C° 0 mm 2 mps 740 mmHg 70%
10:00 +25°C° 0 mm 3 mps 740 mmHg 66%
11:00 +26°C° 0 mm 3 mps 740 mmHg 62%
12:00 +27°C° 0 mm 3 mps 740 mmHg 62%
13:00 +27°C° 0 mm 3 mps 739 mmHg 63%
14:00 +28°C° 0 mm 4 mps 739 mmHg 63%
15:00 +27°C° 0 mm 3 mps 739 mmHg 66%
16:00 +27°C° 0 mm 3 mps 739 mmHg 69%
17:00 +27°C° 0 mm 3 mps 739 mmHg 72%
18:00 +25°C° 0 mm 3 mps 739 mmHg 77%
19:00 +24°C° 0 mm 2 mps 739 mmHg 83%
20:00 +21°C° 0 mm 2 mps 739 mmHg 88%
21:00 +21°C° 0 mm 2 mps 739 mmHg 89%
22:00 +20°C° 0 mm 2 mps 739 mmHg 90%
23:00 +19°C° 0 mm 2 mps 739 mmHg 92%

7 July, Tuesday

Time Temperature Precipitation Wind Pressure Humidity
00:00 +19°C° 0 mm 2 mps 739 mmHg 92%
01:00 +19°C° 0 mm 2 mps 739 mmHg 93%
02:00 +19°C° 0 mm 1 mps 740 mmHg 94%
03:00 +20°C° 0 mm 1 mps 740 mmHg 93%
04:00 +20°C° 0 mm 1 mps 740 mmHg 92%
05:00 +21°C° 0 mm 1 mps 740 mmHg 91%
06:00 +21°C° 0 mm 2 mps 740 mmHg 86%
07:00 +24°C° 0 mm 2 mps 740 mmHg 81%
08:00 +25°C° 0 mm 3 mps 740 mmHg 77%
09:00 +26°C° 0 mm 3 mps 740 mmHg 73%
10:00 +27°C° 0 mm 3 mps 739 mmHg 69%
11:00 +28°C° 0 mm 3 mps 739 mmHg 65%
12:00 +28°C° 0.3 mm 3 mps 739 mmHg 65%
13:00 +29°C° 0.3 mm 3 mps 739 mmHg 65%
14:00 +29°C° 0.3 mm 3 mps 738 mmHg 66%
15:00 +29°C° 0.3 mm 3 mps 738 mmHg 68%
16:00 +29°C° 0.3 mm 3 mps 738 mmHg 71%
17:00 +29°C° 0.3 mm 2 mps 738 mmHg 74%
18:00 +28°C° 0.5 mm 2 mps 737 mmHg 79%
19:00 +26°C° 0.5 mm 2 mps 737 mmHg 84%
20:00 +24°C° 0.5 mm 2 mps 737 mmHg 89%
21:00 +24°C° 0.3 mm 2 mps 737 mmHg 90%
22:00 +23°C° 0.3 mm 2 mps 737 mmHg 90%
23:00 +23°C° 0.3 mm 2 mps 736 mmHg 91%

8 July, Wednesday

Time Temperature Precipitation Wind Pressure Humidity
00:00 +23°C° 0.9 mm 2 mps 736 mmHg 92%
01:00 +21°C° 0.9 mm 2 mps 736 mmHg 93%
02:00 +21°C° 0.9 mm 2 mps 736 mmHg 93%
03:00 +21°C° 0.1 mm 2 mps 735 mmHg 92%
04:00 +21°C° 0.1 mm 3 mps 735 mmHg 91%
05:00 +21°C° 0.1 mm 3 mps 735 mmHg 91%
06:00 +22°C° 0 mm 3 mps 735 mmHg 87%
07:00 +24°C° 0 mm 3 mps 734 mmHg 83%
08:00 +25°C° 0 mm 4 mps 734 mmHg 80%
09:00 +26°C° 0 mm 4 mps 734 mmHg 75%
10:00 +27°C° 0 mm 4 mps 734 mmHg 70%
11:00 +29°C° 0 mm 5 mps 734 mmHg 66%
12:00 +28°C° 0 mm 4 mps 734 mmHg 69%
13:00 +28°C° 0 mm 4 mps 734 mmHg 72%
14:00 +28°C° 0 mm 4 mps 734 mmHg 75%
15:00 +27°C° 0.7 mm 4 mps 733 mmHg 78%
16:00 +26°C° 0.7 mm 4 mps 733 mmHg 81%
17:00 +25°C° 0.7 mm 4 mps 733 mmHg 84%
18:00 +22°C° 0.8 mm 4 mps 733 mmHg 89%
19:00 +21°C° 0.8 mm 3 mps 734 mmHg 93%
20:00 +19°C° 0.8 mm 2 mps 734 mmHg 97%
21:00 +18°C° 0.1 mm 3 mps 734 mmHg 96%
22:00 +17°C° 0.1 mm 4 mps 734 mmHg 96%
23:00 +17°C° 0.1 mm 4 mps 734 mmHg 96%
Show more